Flag for France Weather past 2 weeks in Besançon, France

Now
39 °F

Broken clouds.


Feels Like: 34 °F
Forecast: 33 / 36 °F
Wind: 8 mph from Southwest

Location: Dole Tavaux

Current Time: Jan 31, 2015 at 2:57:55 PM

Latest Report: Jan 31, 2015 at 2:30 PM


Visibility: N/A

Pressure: 29.12 "Hg

Humidity: 87%

Dew point: 36 °F

Location of BesançonLocation

Historic Weather in Besançon — Graph

°F

Besançon temperature yesterday

Maximum temperature yesterday: 41 °F (at 12:00 AM)
Minimum temperature yesterday: 32 °F (at 6:00 AM)
Average temperature yesterday: 36 °F

Past Weeks' High & Low Weather Summary

 TemperatureHumidityPressure
High45 °F (Jan 16, 2:30 PM)100% (Jan 16, 1:00 PM)30.45 "Hg (Jan 16, 1:00 PM)
Low27 °F (Jan 18, 8:30 AM)66% (Jan 17, 2:30 PM)28.91 "Hg (Jan 29, 11:00 PM)
Average36 °F89%29.91 "Hg
* Reported Jan 16 1:00 PM — Jan 31 1:30 PM, Besançon, Weather by CustomWeather, © 2014

Note: Actual official high and low records may vary slightly from our data, if they occured in-between our weather recording intervals... More about our weather records

Advertising

Besançon weather history for previous 24 hours

 ConditionsComfort  
Time TempWeatherWind HumidityBarometerVisibility
1:30 PM
Jan 31
39 °FMore clouds than sun.9 mph87%29.12 "HgN/A
1:00 PM37 °FLow clouds.10 mph93%29.12 "HgN/A
12:30 PM37 °FMostly cloudy.12 mph93%29.12 "HgN/A
12:00 PM37 °FMostly cloudy.12 mph87%29.12 "HgN/A
11:30 AM37 °FMostly cloudy.13 mph87%29.12 "HgN/A
11:00 AM36 °FLight rain. Low clouds.12 mph93%29.09 "Hg4 mi
10:30 AM36 °FLight rain. Fog.12 mph87%29.09 "Hg3 mi
10:00 AM34 °FLight rain. Mostly cloudy.9 mph93%29.09 "Hg4 mi
9:30 AM34 °FLight snow. Fog.6 mph93%29.09 "Hg1 mi
9:00 AM34 °FClear.7 mph93%29.09 "HgN/A
8:30 AM34 °FOvercast.8 mph87%29.09 "HgN/A
8:00 AM32 °FMostly cloudy.3 mph93%29.09 "HgN/A
7:30 AM32 °FMostly cloudy.3 mph93%29.06 "HgN/A
7:00 AM32 °FMostly cloudy.2 mph93%29.06 "HgN/A
6:30 AM32 °FPassing clouds.3 mph93%29.06 "HgN/A
6:00 AM32 °FClear.5 mph93%29.06 "HgN/A
5:30 AM32 °FClear.7 mph93%29.09 "HgN/A
5:00 AM34 °FClear.7 mph87%29.09 "HgN/A
4:00 AM32 °FOvercast.6 mph100%29.09 "HgN/A
3:30 AM32 °FClear.7 mph100%29.09 "HgN/A
3:00 AM32 °FClear.8 mph100%29.09 "HgN/A
2:30 AM32 °FClear.7 mph93%29.09 "HgN/A
2:00 AM32 °FClear.6 mph93%29.09 "HgN/A
1:30 AM34 °FPartly cloudy.7 mph93%29.09 "HgN/A
1:00 AM36 °FPartly cloudy.9 mph93%29.09 "HgN/A
12:30 AM36 °FMostly cloudy.7 mph93%29.09 "HgN/A
12:00 AM36 °FPassing clouds.7 mph93%29.09 "HgN/A
11:30 PM
Jan 30
36 °FMostly cloudy.9 mph93%29.06 "HgN/A
11:00 PM36 °FMostly cloudy.9 mph93%29.06 "HgN/A
10:30 PM36 °FPartly cloudy.7 mph93%29.06 "HgN/A
10:00 PM36 °FMostly cloudy.9 mph93%29.06 "HgN/A
9:30 PM36 °FMostly cloudy.7 mph93%29.06 "HgN/A
9:00 PM37 °FMostly cloudy.9 mph81%29.03 "HgN/A
8:30 PM37 °FMostly cloudy.7 mph87%29.03 "HgN/A
8:00 PM37 °FDrizzle. Overcast.8 mph87%29.03 "HgN/A
7:30 PM37 °FMostly cloudy.10 mph87%29.00 "HgN/A
7:00 PM37 °FMostly cloudy.12 mph87%29.00 "HgN/A
6:30 PM36 °FLight rain. Overcast.14 mph93%28.97 "HgN/A
6:00 PM36 °FLight rain. Mostly cloudy.14 mph93%28.97 "HgN/A
5:30 PM34 °FLight rain. Mostly cloudy.14 mph93%28.94 "HgN/A
5:00 PM34 °FLight freezing rain. Low clouds.14 mph93%28.94 "HgN/A
4:30 PM34 °FLight rain. Mostly cloudy.16 mph93%28.97 "Hg5 mi
4:00 PM36 °FLight rain. Mostly cloudy.15 mph93%28.97 "HgN/A
3:30 PM36 °FLight rain. Partly sunny.16 mph93%28.97 "HgN/A
3:00 PM36 °FLight rain. Mostly cloudy.17 mph93%28.97 "HgN/A
2:30 PM39 °FLight rain. Broken clouds.17 mph70%28.97 "HgN/A
2:00 PM39 °FMostly cloudy.17 mph75%29.00 "HgN/A
Weather by CustomWeather, © 2014

See weather overviewHow to use our weather pages